Regional Weather Roundup
Issued by NWS Newport/Morehead, NC

Current Version | Previous Version | Graphics & Text | Print | Product List | Glossary Off
Versions: 1 2 3 4 5 6 7 8 9 10 11 12 13 14 15 16 17 18 19 20 21 22 23 24 25 26 27 28 29 30 31 32 33 34 35 36 37 38 39 40 41 42 43 44 45 46 47 48 49 50

000
ASUS42 KMHX 011322
RWRMHX
WEATHER ROUNDUP FOR EASTERN NORTH CAROLINA
NATIONAL WEATHER SERVICE NEWPORT/MOREHEAD CITY NC
800 AM EST SUN FEB 01 2015

NOTE: "FAIR" INDICATES FEW OR NO CLOUDS BELOW 12,000 FEET
WITH NO SIGNIFICANT WEATHER AND/OR OBSTRUCTIONS TO VISIBILITY

NCZ015>017-031-032-045>047-102-103-011400-
NORTH COAST

CITY           SKY/WX    TMP DP  RH WIND       PRES   REMARKS
EDENTON        MOCLDY    37  27  66 CALM      30.31R
ELIZABETH CITY MOCLDY    33  26  75 CALM      30.31R
KITTY HAWK     SUNNY     36  26  67 W3        30.30R
MANTEO         CLEAR     36  27  69 W3        30.31S

$$

NCZ045>047-081-094-103-104-011400-
CENTRAL COAST

CITY           SKY/WX    TMP DP  RH WIND       PRES   REMARKS
FRISCO         PTCLDY    41  29  62 W6        30.32R
SWANQUARTER      N/A     39 N/A N/A W3        30.27S

$$

NCZ095-097-098-100-101-011400-
SOUTHERN COAST

CITY           SKY/WX    TMP DP  RH WIND       PRES   REMARKS
BEAUFORT       MOCLDY    43  34  70 SW3       30.32F
CEDAR ISLAND     N/A     41 N/A N/A S5        30.36S
JACKSONVILLE   CLOUDY    38  29  70 W5        30.32S
PINEY ISLAND     N/A    N/A N/A N/A MISG      30.32S
WILMINGTON     CLOUDY    39  33  79 CALM      30.33R


$$

NCZ011>013-027>030-043-044-078>080-089-090>093-098-011400-
COASTAL PLAIN

CITY           SKY/WX    TMP DP  RH WIND       PRES   REMARKS
AHOSKIE        CLOUDY    30  23  76 CALM      30.32R
CLINTON        PTCLDY    36  29  77 CALM      30.32R
ELIZABETHTOWN  MOCLDY    40  29  64 S3        30.31F
GOLDSBORO      CLOUDY    38  31  75 CALM      30.30R
GREENVILLE     CLOUDY    36  23  60 CALM      30.32R
HAVELOCK       CLOUDY    38  26  62 SW5       30.32F
KENANSVILLE    CLOUDY    35  29  76 CALM      30.33R
KINSTON        CLOUDY    37  27  65 SW3       30.32R
NEW BERN       CLOUDY    39  26  59 SW5       30.32F
RICHLANDS      CLOUDY    34  28  80 CALM      30.34R
ROCKY MOUNT    CLOUDY    36  26  67 CALM      30.31R
WASHINGTON     MOCLDY    34  24  65 W3        30.32R
WHITEVILLE     CLOUDY    38  30  72 W5        30.33R

$$

AMZ130-135-150-152-154-156-158-170-250-252-270-ANZ085-086-088-633-658-670-011400-
MARINE OBSERVATIONS

STATION/POSITION TIME  TEMP    WIND        PRES    WAVE   SWELL
                       AIR SEA DIR/SP/G            HT/PER HT/PER
                 (UTC) (F)     (DEG/KT/KT) (MB)    (FT/S) (FT/S)
CHESAPEAKE LIGHT 1300   38      70/ 14/ 14 1026.7
64 E VA BEACH    1300   42 48   20/  4/  8 1025.7    4/ 7   3/ 7
DUCK             1300   37 41  340/  5/  7 1025.2
2 E DUCK         1300      40                N/A     2/ 7
10 NE DUCK       1300      43                N/A     3/ 8
OREGON INLET     1300   38 37  240/  6/  7 1026.5
13E OREGON INLT  1300      41                N/A     5/11   3/11
HATTERAS CG      1300   44 42  250/  6/ 11 1026.9
DIAMOND BUOY     1300   52 71  280/ 14/ 21 1026.3    7/11   7/11
17 S OCRACOKE    NOT AVBL
CAPE LOOKOUT     1300   47     270/  6/  7 1026.7
BEAUFORT LAB     1300   44 45  250/  2/  4 1025.5
27 SE WRIGHTSVLE NOT AVBL
5 SE WRIGHTSVLE  1300   48 51  250/  6/  6 1026.7
225 S CAPE HAT   1224   58 69  350/  2/  6 1028.0    9/11   8/11
41 SE CHARLESTON 1300   59 70  160/  6/ 10 1026.4    4/11   3/11

$$



USA.gov is the U.S. government's official web portal to all federal, state and local government web resources and services.